sat.trackr.live / text

‹ back to catalog

STARLINK-35498

NORAD 67017 · 2025-293Q

PAYLOAD ACTIVE UNKNOWN

§ Identity

Operator
Country
US
Launch date
2025-12-10
Launch site
AFWTR
Launch vehicle
Mass (kg)
RCS (m²)

Purposes: comms

External: N2YO · Heavens-Above · Gunter

§ Orbital elements

Epoch: 2026-05-25T00:32:19.940928Z

Period
96.11 min
Inclination
70.0008°
Eccentricity
0.0003218
Mean motion
14.98334873 rev/d
Perigee alt
569.8 km
Apogee alt
574.3 km
Semi-major
6,950.2 km
B*
1.9575e-4
RAAN
261.9136°
Arg perigee
270.5563°
Mean anomaly
89.5227°
Rev number
2,632

§ Raw data

STARLINK-354981 67017U 25293Q   26145.02245302  .00002244  00000+0  19575-3 0  99992 67017  70.0008 261.9136 0003218 270.5563  89.5227 14.98334873 26324

JSON: /api/v1/satellites/67017 · /tle

For live sub-satellite position, see the globe view (requires WebGL).

§ Visibility from observer

Set your observer location to see the next 7 days of passes ≥ 10°. The values pass through the URL so the page stays shareable.

No JS? Fill the form by hand. The geolocation button needs JavaScript.